This is the latest recevied weather packets stored in our database for station/object VK4HIT-13. If no packets are shown the sender has not sent any weather packets the latest 10 day(s).
| Time | Temp. | Humidity | Pressure | Rain* | Wind** | Luminosity | Snow |
|---|---|---|---|---|---|---|---|
| 1778122467 | 23.89° C | 44% | 1014.8 hPa | 0 mm | - | - | - |
| 1778122167 | 23.89° C | 43% | 1014.9 hPa | 0 mm | - | - | - |
| 1778121867 | 23.89° C | 44% | 1015 hPa | 0 mm | - | - | - |
| 1778121567 | 23.89° C | 44% | 1014.9 hPa | 0 mm | - | - | - |
| 1778121267 | 23.89° C | 45% | 1014.8 hPa | 0 mm | - | - | - |
| 1778120967 | 23.89° C | 46% | 1014.9 hPa | 0 mm | - | - | - |
| 1778120667 | 23.89° C | 45% | 1015 hPa | 0 mm | - | - | - |
| 1778120367 | 23.89° C | 46% | 1015.1 hPa | 0 mm | - | - | - |
| 1778120067 | 23.89° C | 47% | 1015.3 hPa | 0 mm | - | - | - |
| 1778119767 | 24.44° C | 46% | 1015.4 hPa | 0 mm | - | - | - |
| 1778119467 | 23.89° C | 50% | 1015.4 hPa | 0 mm | - | - | - |
| 1778119167 | 23.33° C | 50% | 1015.5 hPa | 0 mm | - | - | - |
| 1778118867 | 23.33° C | 50% | 1015.6 hPa | 0 mm | - | - | - |
| 1778118567 | 23.33° C | 52% | 1015.7 hPa | 0 mm | - | - | - |
| 1778118267 | 23.89° C | 50% | 1015.8 hPa | 0 mm | - | - | - |
| 1778117967 | 23.89° C | 51% | 1015.9 hPa | 0 mm | - | - | - |
| 1778117667 | 23.89° C | 50% | 1016 hPa | 0 mm | - | - | - |
| 1778117367 | 23.89° C | 50% | 1016 hPa | 0 mm | - | - | - |
| 1778117067 | 23.89° C | 51% | 1016.2 hPa | 0 mm | - | - | - |
| 1778116767 | 23.33° C | 51% | 1016.2 hPa | 0 mm | - | - | - |
| 1778116467 | 23.89° C | 50% | 1016.1 hPa | 0 mm | - | - | - |
| 1778116167 | 23.89° C | 51% | 1016.3 hPa | 0 mm | - | - | - |
| 1778115867 | 23.89° C | 53% | 1016.4 hPa | 0 mm | - | - | - |
| 1778115567 | 23.89° C | 54% | 1016.4 hPa | 0 mm | - | - | - |
| 1778115267 | 23.89° C | 54% | 1016.4 hPa | 0 mm | - | - | - |
* Rain latest hour (hover to see other rain measurements)
** Current wind speed in m/s (hover to see current wind gust speed)